Regional Weather Roundup
Issued by NWS Charleston, WV

Home | Current Version | Previous Version | Text Only | Print | Product List | Glossary On
Versions: 1 2 3 4 5 6 7 8 9 10 11 12 13 14 15 16 17 18 19 20 21 22 23 24 25 26 27 28 29 30 31 32 33 34 35 36 37 38 39 40 41 42 43 44
000
ASUS41 KRLX 211610
RWRRLX
West Virginia Regional Weather Roundup
National Weather Service Charleston WV
1200 PM EDT SAT OCT 21 2017

Note: "fair" indicates few or no clouds below 12,000 feet with no
significant weather and/or obstructions to visibility.

WVZ003-211700-
Northern Panhandle of West Virginia

CITY           SKY/WX    TMP DP  RH WIND       PRES   REMARKS
WHEELING       SUNNY     69  49  48 SW5       30.29F
$$

WVZ009-211700-
Northwest West Virginia

CITY           SKY/WX    TMP DP  RH WIND       PRES   REMARKS
PARKERSBURG    PTSUNNY   62  52  69 W3        30.33R
$$

WVZ006-211700-
Western West Virginia

CITY           SKY/WX    TMP DP  RH WIND       PRES   REMARKS
HUNTINGTON     MOSUNNY   69  53  56 S5        30.29S
$$

WVZ015-211700-
West Central West Virginia

CITY           SKY/WX    TMP DP  RH WIND       PRES   REMARKS
CHARLESTON     MOSUNNY   71  52  50 CALM      30.30S
$$

WVZ022-031-211700-
North Central West Virginia

CITY           SKY/WX    TMP DP  RH WIND       PRES   REMARKS
CLARKSBURG     SUNNY     72  51  47 VRB3      30.31F
MORGANTOWN     SUNNY     73  50  44 SE6       30.32S
$$

WVZ025-035-042-045-211700-
Southern West Virginia

CITY           SKY/WX    TMP DP  RH WIND       PRES   REMARKS
BECKLEY        SUNNY     70  44  39 CALM      30.36R
LOGAN            N/A     70  48  46 CALM      30.32S
BLUEFIELD      SUNNY     67  40  37 SW6       30.38R
LEWISBURG      SUNNY     67  50  55 CALM      30.38S
$$

WVZ047-211700-
Northern Mountains of West Virginia

CITY           SKY/WX    TMP DP  RH WIND       PRES   REMARKS
ELKINS         SUNNY     63  48  58 CALM      30.35F
$$

WVZ052-211700-
Eastern Panhandle of West Virginia

CITY           SKY/WX    TMP DP  RH WIND       PRES   REMARKS
MARTINSBURG    SUNNY     65  46  50 VRB3      30.36S
PETERSBURG     SUNNY     64  48  57 CALM      30.35F
$$




USA.gov is the U.S. government's official web portal to all federal, state and local government web resources and services.